Regional Weather Roundup
Issued by NWS

Home | Current Version | Previous Version | Graphics & Text | Print | Product List | Glossary On
Versions: 1 2 3 4 5 6 7 8 9 10 11 12 13 14 15 16 17 18 19 20 21 22 23 24 25 26 27 28 29 30 31 32 33 34 35 36 37 38 39 40 41 42 43 44 45 46 47 48 49 50
000
ASUS43 KMPX 192310
RWRMN
WEATHER ROUNDUP FOR MINNESOTA
NATIONAL WEATHER SERVICE TWIN CITIES/CHANHASSEN MN
600 PM CDT THU APR 19 2018


NOTE: "FAIR" INDICATES FEW OR NO CLOUDS BELOW 12,000 FEET WITH NO
SIGNIFICANT WEATHER AND/OR OBSTRUCTIONS TO VISIBILITY. N/A MEANS
CURRENT SKY AND/OR WEATHER CONDITIONS ARE NOT AVAILABLE.

MNZ060>063-068>070-200000-
   Twin Cities Metro

CITY           SKY/WX    TMP DP  RH WIND       PRES   REMARKS
TWIN CITIES    FAIR      52  20  28 NW6       30.44S
ST PAUL        FAIR      50  19  29 CALM      30.45S
CRYSTAL        FAIR      49  20  31 W8        30.43S
BLAINE         SUNNY     54  19  26 W5        30.43F
LAKEVILLE      FAIR      46  21  36 W7        30.44S
EDEN PRAIRIE   FAIR      49  22  34 W7        30.43S
SOUTH ST PAUL  FAIR      51  15  24 CALM      30.43S
LAKE ELMO      FAIR      50  21  32 CALM      30.44S
$$
MNZ001>005-007-008-013>017-022>024-027-028-200000-
   Northwest Minnesota

CITY           SKY/WX    TMP DP  RH WIND       PRES   REMARKS
BEMIDJI        FAIR      54  19  25 NW8       30.37F
HALLOCK        FAIR      55  34  44 S9        30.36S
ROSEAU         FAIR      55  30  38 SW6       30.36F
WARROAD        FAIR      55  27  33 SW8       30.36F
THIEF RVR FALL FAIR      54  27  35 W8        30.39S
CROOKSTON      FAIR      54  28  37 W6        30.40R
FOSSTON        FAIR      57  19  23 SW5       30.39S
DETROIT LAKES  FAIR      54  27  35 CALM      30.40S
MOORHEAD       FAIR      55  27  33 SW6       30.40S
PARK RAPIDS    FAIR      52  25  35 S7        30.38F
MAHNOMEN       FAIR      54  24  31 SW7       30.38S
$$
MNZ006-009>011-018-025>026-200000-
   North Central Minnesota

CITY           SKY/WX    TMP DP  RH WIND       PRES   REMARKS
BAUDETTE       FAIR      55  17  22 CALM      30.36S
FLAG ISLAND    FAIR      39  25  56 SE6       30.36S
INTL FALLS     FAIR      55  12  18 NW7       30.36S
WASKISH        FAIR      55  18  22 W6        30.37S
BIG FORK       FAIR      55  10  16 CALM      30.37S
LONGVILLE      FAIR      55  10  16 SW6       30.39R
GRAND RAPIDS   FAIR      53  11  18 W5        30.40R
CRANE LAKE     FAIR      52  10  19 N3        30.38F
ORR            FAIR      54   3  13 CALM      30.34S
COOK           FAIR      54  14  20 SW5       30.37S
WALKER         FAIR      54  18  24 NW6       30.37S
$$
MNZ012-019>021-037-200000-
   Northeast Minnesota

CITY           SKY/WX    TMP DP  RH WIND       PRES   REMARKS
DULUTH         FAIR      54  14  20 NW7       30.37S
ELY            FAIR      52   9  17 W6        30.36R
HIBBING        FAIR      52  13  21 W7        30.37S
EVELETH        FAIR      53  14  21 NW3       30.38S
DULUTH HARBOR  FAIR      55  16  21 CALM      30.38F
TWO HARBORS    FAIR      61  25  25 W3        30.35S
SILVER BAY     FAIR      54  18  24 S13       30.35S
GRAND MARAIS     N/A     40  27  59 SW10      30.37F
G MARAIS ARPRT FAIR      50   7  17 S3        30.35S
$$
MNZ029>031-032-039>041-046>048-054>057-064-200000-
   West Central Minnesota

CITY           SKY/WX    TMP DP  RH WIND       PRES   REMARKS
FERGUS FALLS   FAIR      54  30  40 CALM      30.38R
WHEATON        PTSUNNY   55  28  35 W7        30.42S
MORRIS         SUNNY     52  36  54 S14       30.41F
ALEXANDRIA     FAIR      54  31  41 SW10      30.42S
ELBOW LAKE     CLOUDY    52  33  47 CALM      30.41S
WADENA         FAIR      50  28  43 W3        30.40S
GLENWOOD       FAIR      52  27  37 S12       30.43S
APPLETON       SUNNY     48  21  34 S12       30.43F
BENSON         SUNNY     48  19  32 W12       30.45F
ORTONVILLE     SUNNY     52  28  40 S7        30.41F
MADISON        SUNNY     46  34  61 S8        30.44S
WILLMAR        FAIR      46  30  53 SW10      30.48R
$$
MNZ033>034-036-042>043-049>051-058-059-200000-
   Central Minnesota

CITY           SKY/WX    TMP DP  RH WIND       PRES   REMARKS
ST CLOUD       FAIR      52  23  32 SW8       30.42S
SAUK CENTRE    FAIR      50  29  44 SW9G17    30.42S
PAYNESVILLE    FAIR      50  32  49 W10       30.44S
AITKIN         FAIR      52  16  24 W6        30.38S
PINE RIVER     FAIR      52  21  30 W3        30.42R
BRAINERD       FAIR      55  18  23 NW7       30.40S
STAPLES        FAIR      50  25  37 CALM      30.40F
LONG PRAIRIE   FAIR      50  30  46 SW8       30.41F
LITTLE FALLS   FAIR      52  12  20 SW3       30.42S
LITCHFIELD     FAIR      48  28  46 CALM      30.45S
BUFFALO        FAIR      47  23  38 S7        30.45S
MAPLE LAKE     FAIR      49  29  46 SW6       30.45S
HUTCHINSON     FAIR      45  29  54 SW6       30.47S
$$
MNZ037-044-045-052-053-200000-
   East Central Minnesota

CITY           SKY/WX    TMP DP  RH WIND       PRES   REMARKS
PRINCETON      FAIR      54  21  28 W3        30.43S
MORA           FAIR      50  21  32 W7        30.43S
CAMBRIDGE      FAIR      54  30  40 NW5       30.43S
RUSH CITY      FAIR      52  22  31 W6        30.42S
MOOSE LAKE     FAIR      54  19  26 W3        30.37S
HINCKLEY       FAIR      54  18  24 W3        30.41S
CLOQUET        FAIR      54  10  17 SW6       30.37S
MCGREGOR       FAIR      54  18  24 W7        30.39S
$$
MNZ071>073-080-081-089-090-097-098-200000-
   Southwest Minnesota

CITY           SKY/WX    TMP DP  RH WIND       PRES   REMARKS
MONTEVIDEO     SUNNY     48  21  34 W6        30.45F
GRANITE FALLS  SUNNY     45  32  61 S5        30.48S
CANBY          SUNNY     47  25  41 SW6       30.45F
MARSHALL       SUNNY     44  28  53 CALM      30.46F
REDWOOD FALLS  SUNNY     41  23  48 SW8       30.46S
OLIVIA         SUNNY     45  32  61 SW6       30.46S
PIPESTONE      SUNNY    N/A N/A N/A S3        30.44S
WINDOM         SUNNY     39  19  45 W6        30.46S
WORTHINGTON    SUNNY     40  27  59 W3        30.47S
JACKSON        SUNNY     37  21  52 SW6       30.46S
TRACY          SUNNY     42  29  59 SW5       30.46S
SLAYTON        SUNNY     40  28  62 SW6       30.46S
$$
MNZ065>067-074>077-082>085-091>093-200000-
   South Central Minnesota

CITY           SKY/WX    TMP DP  RH WIND       PRES   REMARKS
MANKATO        FAIR      46  19  34 CALM      30.46S
NEW ULM        SUNNY     39  27  60 W8        30.47R
ST JAMES       SUNNY     41  21  45 CALM      30.49R
FAIRMONT       SUNNY     39  22  50 CALM      30.48R
GLENCOE        FAIR      45  28  53 SW3       30.45S
OWATONNA       FAIR      43  28  56 CALM      30.45S
WASECA         FAIR      39  30  70 CALM      30.47S
ALBERT LEA     FAIR      41  16  36 CALM      30.45S
$$
MNZ078>079-086>088-094>096-200000-
   Southeast Minnesota

CITY           SKY/WX    TMP DP  RH WIND       PRES   REMARKS
ROCHESTER      FAIR      41  27  57 NW8       30.45S
RED WING       FAIR      52  12  20 CALM      30.44S
STANTON        FAIR      46  22  38 W6        30.44S
DODGE CENTER   FAIR      43  19  39 NW5       30.45S
WINONA         FAIR      48  19  32 NW3       30.43S
AUSTIN         FAIR      43  19  39 N3        30.45S
PRESTON        FAIR      43  19  38 N6        30.45S
$$
ABBREVIATIONS USED IN REMARKS
   TC - TEMPERATURES IN CELSIUS
  WCI - WIND CHILL INDEX
   HX - HEAT INDEX
  VSB - VISIBILITY
$$



USA.gov is the U.S. government's official web portal to all federal, state and local government web resources and services.